EW1033 Weather Reports


Display with metric or nautical units.
time (UTC)temp
F
wind
direction
speed
MPH
gust
MPH
rain 1hr
in
rain 24hr
in
rain mn
in
humidity
%
barometer
mb
20260831020058 94 0.0 0.0 0.00 0.00 0.00 33 1004.4
20260831014556 94 0.0 0.0 0.00 0.00 0.00 33 1004.2
20260831013055 95 0.0 0.0 0.00 0.00 0.00 32 1004.1
20260831011554 96 0.0 0.0 0.00 0.00 0.00 32 1004.0
20260831010054 96 0.0 0.0 0.00 0.00 0.00 31 1004.0
20260831004553 98 0.0 0.0 0.00 0.00 0.00 30 1004.0
20260831003057 99 0.0 0.0 0.00 0.00 0.00 29 1004.0
20260831001550 100 0.0 0.0 0.00 0.00 0.00 29 1004.1
20260831000050 99 0.0 0.0 0.00 0.00 0.00 29 1004.0
20260830234558 100 0.0 0.0 0.00 0.00 0.00 29 1004.0
20260830233046 100 0.0 0.0 0.00 0.00 0.00 29 1004.0
20260830231548 100 0.0 0.0 0.00 0.00 0.00 28 1004.2
20260830230046 100 0.0 0.0 0.00 0.00 0.00 28 1004.4
20260830224539 101 0.0 0.0 0.00 0.00 0.00 28 1004.7
20260830223039 101 0.0 0.0 0.00 0.00 0.00 28 1005.1
20260830221536 101 0.0 0.0 0.00 0.00 0.00 28 1005.3
20260830220029 100 0.0 0.0 0.00 0.00 0.00 28 1005.5
20260830214524 100 0.0 0.0 0.00 0.00 0.00 28 1005.7
20260830213022 98 0.0 0.0 0.00 0.00 0.00 29 1006.1
20260830211521 100 0.0 0.0 0.00 0.00 0.00 28 1006.3
20260830210016 100 0.0 0.0 0.00 0.00 0.00 29 1006.6
20260830204514 98 0.0 0.0 0.00 0.00 0.00 30 1006.9
20260830203027 99 0.0 0.0 0.00 0.00 0.00 30 1007.3
20260830201508 98 0.0 0.0 0.00 0.00 0.00 30 1007.4
20260830200015 98 0.0 0.0 0.00 0.00 0.00 30 1007.8
20260830194505 96 0.0 0.0 0.00 0.00 0.00 32 1007.9
20260830193006 98 0.0 0.0 0.00 0.00 0.00 31 1008.2
20260830191600 97 0.0 0.0 0.00 0.00 0.00 33 1008.4
20260830184558 96 0.0 0.0 0.00 0.00 0.00 33 1008.8
20260830183054 95 0.0 0.0 0.00 0.00 0.00 33 1008.9
20260830181552 94 0.0 0.0 0.00 0.00 0.00 36 1009.2
20260830180053 94 0.0 0.0 0.00 0.00 0.00 38 1009.4
20260830174553 93 0.0 0.0 0.00 0.00 0.00 40 1009.5
20260830173104 92 0.0 0.0 0.00 0.00 0.00 39 1009.7
20260830171545 91 0.0 0.0 0.00 0.00 0.00 41 1009.7
20260830170045 91 0.0 0.0 0.00 0.00 0.00 40 1009.7
20260830164541 89 0.0 0.0 0.00 0.00 0.00 42 1009.7
20260830163041 89 0.0 0.0 0.00 0.00 0.00 43 1009.7
20260830161536 88 0.0 0.0 0.00 0.00 0.00 45 1009.9
20260830160033 87 0.0 0.0 0.00 0.00 0.00 46 1009.9
20260830154531 86 0.0 0.0 0.00 0.00 0.00 48 1010.0
20260830153027 86 0.0 0.0 0.00 0.00 0.00 48 1009.9
20260830151526 85 0.0 0.0 0.00 0.00 0.00 50 1009.8
20260830150028 83 0.0 0.0 0.00 0.00 0.00 55 1009.9
20260830144532 82 0.0 0.0 0.00 0.00 0.00 54 1009.8
20260830143029 82 0.0 0.0 0.00 0.00 0.00 54 1010.0
20260830141518 82 0.0 0.0 0.00 0.00 0.00 54 1010.0
20260830140016 82 0.0 0.0 0.00 0.00 0.00 54 1010.1
20260830134522 81 0.0 0.0 0.00 0.00 0.00 54 1010.1
20260830133011 81 0.0 0.0 0.00 0.00 0.00 54 1010.1
20260830131517 81 0.0 0.0 0.00 0.00 0.00 53 1010.0
20260830130007 82 0.0 0.0 0.00 0.00 0.00 53 1009.8
20260830124505 82 0.0 0.0 0.00 0.00 0.00 52 1009.6
20260830123110 82 0.0 0.0 0.00 0.00 0.00 52 1009.7
20260830121502 82 0.0 0.0 0.00 0.00 0.00 50 1009.5
20260830120059 83 0.0 0.0 0.00 0.00 0.00 49 1009.2
20260830114611 83 0.0 0.0 0.00 0.00 0.00 48 1008.8
20260830113056 83 0.0 0.0 0.00 0.00 0.00 47 1008.8
20260830111557 83 0.0 0.0 0.00 0.00 0.00 47 1008.9
20260830110055 84 0.0 0.0 0.00 0.00 0.00 46 1009.0
20260830104609 83 0.0 0.0 0.00 0.00 0.00 47 1008.9
20260830103056 82 0.0 0.0 0.00 0.00 0.00 49 1008.9
20260830101551 83 0.0 0.0 0.00 0.00 0.00 48 1008.6
20260830100048 83 0.0 0.0 0.00 0.00 0.00 48 1008.3
20260830094547 83 0.0 0.0 0.00 0.00 0.00 48 1008.2
20260830093055 84 0.0 0.0 0.00 0.00 0.00 47 1008.1
20260830091542 84 0.0 0.0 0.00 0.00 0.00 46 1008.0
20260830090040 84 0.0 0.0 0.00 0.00 0.00 47 1007.9
20260830084537 85 0.0 0.0 0.00 0.00 0.00 46 1007.6
20260830083034 85 0.0 0.0 0.00 0.00 0.00 45 1007.5
20260830081532 86 0.0 0.0 0.00 0.00 0.00 44 1007.2
20260830080031 86 0.0 0.0 0.00 0.00 0.00 44 1007.1
20260830074527 86 0.0 0.0 0.00 0.00 0.00 43 1006.9
20260830073031 86 0.0 0.0 0.00 0.00 0.00 44 1006.8
20260830071532 86 0.0 0.0 0.00 0.00 0.00 45 1006.8
20260830070023 86 0.0 0.0 0.00 0.00 0.00 44 1006.8
20260830064524 86 0.0 0.0 0.00 0.00 0.00 43 1006.9
20260830063021 85 0.0 0.0 0.00 0.00 0.00 46 1007.1
20260830061520 84 0.0 0.0 0.00 0.00 0.00 47 1007.3
20260830060020 85 0.0 0.0 0.00 0.00 0.00 47 1007.4
20260830054521 85 0.0 0.0 0.00 0.00 0.00 44 1007.6
20260830053018 85 0.0 0.0 0.00 0.00 0.00 44 1008.1
20260830051518 86 0.0 0.0 0.00 0.00 0.00 43 1008.4
20260830050018 87 0.0 0.0 0.00 0.01 0.00 42 1008.4
20260830044530 87 0.0 0.0 0.00 0.01 0.00 42 1008.8
20260830043017 87 0.0 0.0 0.00 0.01 0.00 41 1008.7
20260830041519 88 0.0 0.0 0.00 0.01 0.00 42 1008.7
20260830040016 88 0.0 0.0 0.00 0.01 0.00 43 1008.7
20260830034516 88 0.0 0.0 0.00 0.01 0.00 42 1008.4
20260830033014 88 0.0 0.0 0.00 0.01 0.00 41 1008.2
20260830031515 88 0.0 0.0 0.00 0.01 0.00 43 1007.7
20260830030014 88 0.0 0.0 0.00 0.01 0.00 42 1007.1
20260830024514 88 0.0 0.0 0.00 0.01 0.00 42 1006.9
20260830023013 89 0.0 0.0 0.00 0.01 0.00 41 1006.5
20260830021514 89 0.0 0.0 0.00 0.01 0.00 41 1006.3